Tracking 20083 objects as of 9-Dec-2019
HD Live streaming from Space Station
objects crossing your sky now

FENGYUN 1C DEB

Track FENGYUN 1C DEB now!
10-day predictions


NORAD ID: 36732
Int'l Code: 1999-025EBE
Perigee: 520.3 km
Apogee: 723.4 km
Inclination: 99.0 °
Period: 97.0 minutes
Semi major axis: 6992 km
RCS: 0.0052 m2 (small)
Launch date: May 10, 1999
Source: People's Republic of China (PRC)
Launch site: Taiyaun Space Center, China (TSC)

Note: This is SATELLITE DEBRIS
aabbcc
Your satellite tracking list
Your tracking list is empty




NASA's NSSDC Master Catalog

Two Line Element Set (TLE):
1 36732U 99025EBE 19342.68681162 +.00000938 +00000-0 +99714-4 0  9997
2 36732 098.9904 144.1632 0145194 137.3834 223.8752 14.84633533588714
Source of the keplerian elements: AFSPC